Location: Edelsbach
(47.0167°N, 15.6000°E)
Time: 23:57:07
(UTC+00:00)

Intercosmos 25 - Pass Details

Date: 08 August 2020
Orbit: 439 x 2877 km, 82.6° (Epoch: 23 September)

Event Time Altitude Azimuth Distance (km) Brightness Sun altitude
Rises 19:50:26 0° 347° (NNW) 3,437 8.3 -13.8°
Reaches altitude 10° 19:53:18 10° 343° (NNW) 2,198 7.3 -14.1°
Maximum altitude 19:57:42 48° 269° (W) 715 4.2 -14.7°
Enters shadow 20:00:45 11° 194° (SSW) 1,543 5.3 -15.0°
